STARLINK-32961, 63122

Orbit data source: Space-Track

STARLINK-32961, 63122 is a payload satellite owned by SpaceX/Seattle (US) in LEO that was launched on Thu, 27 Feb 2025 UTC via an FALCON 9 launch vehicle from the Air Force Eastern Test Range (AFETR). Payload-class satellites include a variety of spacecraft equipped with specific instruments for various scientific and technological missions. These include communications satellites like Starlink; space stations such as the ISS; scientific satellites like the Hubble; Earth observation satellites from companies like Planet Labs, Umbra, and HawkEye 360; GPS; miniature CubeSats for education and research; and military/defense satellites.

Loading next visibility...
Identifier
63122, 2025-039U
Orbit
LEO
Country
Flag of USUS
Related business
Manufacturer
SpaceX/Seattle
Mission
Operational Commercial Communications
Bus & Motor
STARLINK V2M, Unknown motor
Mass
730 kg wet, ~700 kg dry
Launch date (UTC)
2025-02-27 (2 years ago)
Launch vehicle
FALCON 9
Launch site
Air Force Eastern Test Range (AFETR)
Object type
Payload
Rocket body
Debris
Shape & HBR
Box + 2 Pan, 17.7 m
Radar Cross Section
33.884 m², Large (>1 m²)

Expand to show TLE details & history
Last TLE update: 2 days ago

TLE from 2 days ago
0 STARLINK-32961
1 63122U 25039U   26251.82216756  .00019181  00000-0  70426-3 0  9998
2 63122  42.9984  58.6171 0001100 270.0389  90.0337 15.27602327 86079
Epoch: 2026-09-08T19:43Z
TLE epoch observation values (Epoch: 2026-09-08T19:43:55.277Z)
Latitude
0.00002°
Longitude
134.75374°
Altitude
482.758 km
Speed
7.626 km/s
True Right ascension
03h 54m 28s
True Declination
0° 00' 00"
Sunlit
Object was in daylight at epoch
Visualization orbit readout
Latitude
Unknown
Longitude
Unknown
Altitude
Unknown
Speed
Unknown
Apparent Right ascension
Unknown
Apparent Declination
Unknown
Sunlit
N/A
Visualization observer readout
Local Sidereal Time
19:44:01
Azimuth
Unknown
Elevation
Unknown
Doppler factor
Unknown
Orbital elements
Apogee altitude
485.683 km
Perigee altitude
484.173 km
Semi-major axis
6,863.065 km
Eccentricity
0.00011
Inclination
42.9984°
RAAN
58.6171°
Arg. of periapsis
270.0389°
True anomaly
90.04631°
Mean anomaly
90.0337°
Eccentric anomaly
90.04°
Mean motion
3.81739 °/min
Orbital period
94.31 mins
BSTAR
0.00070426
Loading maneuver chart data...
Computing Atmospheric mass density...
Loading historical data...
Loading historical data...
Loading historical data...
Loading historical data...
Loading historical data...
Loading historical data...
Loading historical data...

Documentation

Showing up to 5 results
|